QPF
0.01 0.01 0.01 0.01 0.01 0.01 0.01 0.01 0.02 0.01 0.01 0.02 0.01 0.01 0.00 0.00 0.01 0.01 0.01 0.01 0.00 0.00 0.01 0.01 0.02 0.03 0.04 0.03 0.03 0.02 0.02 0.02 0.02 0.02 0.02 0.02 0.02 0.02 0.02 0.02 0.03 0.03 0.03 0.03
0.01 0.01 0.01 0.01 0.01 0.01 0.01 0.02 0.02 0.01 0.01 0.01 0.02 0.01 0.00 0.00 0.00 0.01 0.01 0.01 0.00 0.00 0.01 0.01 0.01 0.02 0.05 0.04 0.04 0.04 0.03 0.01 0.02 0.02 0.02 0.02 0.02 0.03 0.02 0.02 0.02 0.02 0.03 0.04
0.02 0.01 0.01 0.01 0.01 0.01 0.02 0.01 0.01 0.02 0.02 0.01 0.02 0.01 0.00 0.00 0.00 0.01 0.01 0.01 0.01 0.01 0.01 0.01 0.01 0.01 0.02 0.05 0.05 0.05 0.05 0.04 0.02 0.02 0.02 0.02 0.03 0.03 0.03 0.03 0.03 0.02 0.02 0.03
0.02 0.02 0.02 0.02 0.01 0.01 0.01 0.02 0.02 0.02 0.03 0.02 0.02 0.01 0.00 0.00 0.00 0.00 0.01 0.01 0.01 0.01 0.01 0.01 0.01 0.01 0.01 0.01 0.02 0.04 0.06 0.08 0.05 0.02 0.02 0.03 0.03 0.03 0.03 0.02 0.02 0.02 0.02 0.02
0.01 0.01 0.01 0.00 0.01 0.01 0.01 0.01 0.02 0.02 0.03 0.02 0.01 0.00 0.00 0.00 0.00 0.00 0.00 0.01 0.01 0.01 0.01 0.01 0.01 0.01 0.01 0.01 0.01 0.02 0.04 0.08 0.08 0.06 0.03 0.03 0.04 0.05 0.03 0.02 0.01 0.01 0.01 0.01
0.01 0.01 0.01 0.00 0.00 0.01 0.01 0.02 0.02 0.03 0.04 0.03 0.01 0.01 0.01 0.01 0.00 0.00 0.00 0.00 0.01 0.01 0.01 0.01 0.01 0.01 0.01 0.01 0.01 0.01 0.02 0.04 0.06 0.07 0.05 0.03 0.04 0.05 0.04 0.03 0.02 0.01 0.01 0.01
0.01 0.01 0.01 0.01 0.01 0.01 0.02 0.03 0.04 0.04 0.04 0.04 0.02 0.01 0.01 0.01 0.01 0.01 0.00 0.00 0.01 0.01 0.01 0.01 0.01 0.01 0.01 0.01 0.01 0.02 0.02 0.02 0.03 0.04 0.05 0.04 0.04 0.05 0.04 0.04 0.04 0.02 0.01 0.01
0.01 0.01 0.01 0.01 0.01 0.02 0.02 0.03 0.04 0.05 0.05 0.05 0.04 0.02 0.01 0.01 0.01 0.01 0.00 0.01 0.01 0.01 0.01 0.01 0.01 0.01 0.01 0.01 0.02 0.02 0.03 0.02 0.02 0.03 0.04 0.04 0.03 0.04 0.05 0.04 0.05 0.03 0.01 0.01
0.01 0.01 0.00 0.00 0.01 0.01 0.01 0.02 0.03 0.04 0.04 0.05 0.05 0.02 0.01 0.01 0.01 0.01 0.01 0.01 0.01 0.01 0.01 0.02 0.01 0.01 0.01 0.02 0.03 0.03 0.02 0.02 0.02 0.02 0.02 0.02 0.02 0.04 0.05 0.06 0.06 0.05 0.03 0.02
0.00 0.00 0.00 0.00 0.00 0.01 0.01 0.01 0.01 0.01 0.02 0.04 0.05 0.03 0.02 0.02 0.02 0.01 0.01 0.01 0.01 0.01 0.01 0.01 0.01 0.01 0.01 0.02 0.03 0.02 0.02 0.01 0.01 0.01 0.01 0.02 0.02 0.03 0.04 0.05 0.06 0.06 0.05 0.03
0.01 0.01 0.00 0.00 0.00 0.00 0.00 0.00 0.00 0.00 0.01 0.02 0.04 0.04 0.03 0.02 0.02 0.02 0.01 0.01 0.01 0.01 0.01 0.01 0.01 0.01 0.01 0.02 0.02 0.02 0.01 0.01 0.01 0.01 0.01 0.01 0.01 0.03 0.04 0.03 0.04 0.05 0.05 0.04
0.01 0.00 0.00 0.00 0.00 0.00 0.00 0.00 0.00 0.00 0.00 0.01 0.02 0.03 0.02 0.02 0.02 0.01 0.01 0.01 0.02 0.02 0.02 0.02 0.02 0.02 0.02 0.02 0.01 0.01 0.01 0.00 0.00 0.00 0.00 0.01 0.01 0.02 0.03 0.04 0.04 0.04 0.05 0.05
0.00 0.00 0.00 0.00 0.00 0.00 0.00 0.00 0.00 0.00 0.00 0.00 0.00 0.01 0.01 0.01 0.01 0.01 0.01 0.01 0.02 0.02 0.02 0.02 0.02 0.02 0.02 0.03 0.02 0.02 0.01 0.01 0.01 0.01 0.00 0.01 0.01 0.02 0.03 0.03 0.03 0.03 0.03 0.03
0.00 0.00 0.00 0.00 0.00 0.00 0.00 0.00 0.00 0.00 0.00 0.00 0.00 0.00 0.01 0.01 0.01 0.01 0.01 0.01 0.01 0.01 0.01 0.01 0.02 0.02 0.02 0.03 0.03 0.03 0.02 0.02 0.02 0.01 0.01 0.01 0.01 0.02 0.02 0.03 0.03 0.02 0.02 0.02
0.00 0.00 0.00 0.00 0.00 0.00 0.00 0.00 0.00 0.00 0.00 0.00 0.00 0.00 0.00 0.00 0.01 0.01 0.01 0.01 0.01 0.00 0.00 0.00 0.01 0.01 0.02 0.02 0.03 0.03 0.02 0.02 0.02 0.02 0.01 0.01 0.01 0.02 0.01 0.02 0.03 0.03 0.02 0.01
0.00 0.00 0.00 0.00 0.00 0.01 0.00 0.00 0.00 0.00 0.00 0.00 0.00 0.00 0.00 0.00 0.00 0.01 0.01 0.01 0.00 0.00 0.00 0.00 0.00 0.00 0.01 0.01 0.01 0.02 0.02 0.02 0.02 0.02 0.02 0.02 0.02 0.02 0.02 0.01 0.02 0.03 0.03 0.02
0.00 0.00 0.00 0.01 0.01 0.01 0.00 0.00 0.00 0.00 0.00 0.00 0.00 0.00 0.00 0.00 0.00 0.00 0.00 0.01 0.01 0.00 0.00 0.00 0.00 0.00 0.01 0.01 0.01 0.01 0.01 0.01 0.01 0.01 0.02 0.02 0.02 0.03 0.03 0.02 0.02 0.02 0.03 0.04
0.00 0.00 0.01 0.01 0.01 0.01 0.01 0.00 0.00 0.01 0.01 0.00 0.00 0.00 0.00 0.00 0.00 0.00 0.00 0.00 0.00 0.01 0.00 0.00 0.00 0.00 0.00 0.01 0.01 0.01 0.01 0.01 0.01 0.02 0.02 0.03 0.02 0.02 0.02 0.02 0.02 0.02 0.03 0.04
0.00 0.00 0.00 0.01 0.01 0.01 0.00 0.00 0.00 0.00 0.01 0.01 0.00 0.00 0.00 0.00 0.00 0.00 0.00 0.00 0.00 0.00 0.01 0.00 0.00 0.00 0.00 0.01 0.02 0.02 0.02 0.01 0.01 0.01 0.02 0.03 0.03 0.02 0.02 0.02 0.02 0.03 0.03 0.03
0.00 0.00 0.00 0.00 0.00 0.00 0.00 0.00 0.01 0.01 0.01 0.02 0.02 0.01 0.01 0.01 0.00 0.00 0.00 0.00 0.00 0.00 0.01 0.01 0.01 0.00 0.00 0.01 0.02 0.02 0.02 0.02 0.02 0.01 0.02 0.03 0.04 0.04 0.03 0.02 0.02 0.02 0.02 0.02
0.00 0.00 0.00 0.00 0.00 0.00 0.01 0.01 0.01 0.01 0.01 0.01 0.02 0.02 0.02 0.01 0.01 0.01 0.01 0.01 0.00 0.01 0.01 0.01 0.01 0.00 0.00 0.01 0.01 0.01 0.02 0.02 0.02 0.02 0.02 0.03 0.04 0.04 0.03 0.02 0.02 0.02 0.02 0.01
0.00 0.00 0.00 0.00 0.00 0.01 0.01 0.01 0.01 0.01 0.01 0.01 0.01 0.01 0.01 0.01 0.01 0.01 0.01 0.01 0.01 0.01 0.01 0.01 0.00 0.01 0.01 0.01 0.01 0.01 0.01 0.01 0.02 0.02 0.03 0.03 0.03 0.04 0.04 0.04 0.03 0.02 0.01 0.01
0.00 0.01 0.01 0.01 0.01 0.01 0.01 0.01 0.01 0.01 0.01 0.01 0.01 0.01 0.01 0.01 0.01 0.01 0.01 0.01 0.00 0.01 0.01 0.01 0.01 0.01 0.01 0.00 0.00 0.01 0.01 0.02 0.03 0.03 0.03 0.03 0.03 0.03 0.04 0.04 0.04 0.03 0.02 0.01
0.01 0.01 0.01 0.01 0.01 0.01 0.01 0.01 0.01 0.01 0.00 0.00 0.00 0.00 0.00 0.01 0.01 0.01 0.01 0.01 0.01 0.01 0.01 0.01 0.01 0.01 0.01 0.00 0.01 0.01 0.02 0.02 0.03 0.03 0.03 0.03 0.02 0.03 0.02 0.02 0.03 0.02 0.02 0.01
0.01 0.02 0.02 0.01 0.01 0.01 0.01 0.01 0.00 0.00 0.00 0.00 0.00 0.00 0.00 0.00 0.00 0.00 0.00 0.00 0.01 0.01 0.01 0.01 0.01 0.01 0.01 0.01 0.01 0.02 0.02 0.02 0.02 0.02 0.03 0.03 0.04 0.04 0.03 0.02 0.03 0.03 0.02 0.02
0.01 0.01 0.01 0.01 0.01 0.01 0.01 0.01 0.01 0.00 0.00 0.00 0.00 0.00 0.00 0.00 0.00 0.00 0.00 0.01 0.01 0.01 0.01 0.02 0.02 0.02 0.02 0.02 0.03 0.02 0.02 0.02 0.02 0.03 0.03 0.04 0.05 0.05 0.04 0.04 0.03 0.03 0.03 0.03
0.01 0.01 0.01 0.00 0.00 0.01 0.01 0.01 0.01 0.01 0.01 0.00 0.00 0.00 0.00 0.00 0.00 0.00 0.01 0.01 0.01 0.02 0.02 0.02 0.03 0.03 0.03 0.03 0.03 0.03 0.02 0.02 0.02 0.03 0.03 0.04 0.05 0.05 0.05 0.05 0.04 0.04 0.04 0.03
MSLP
1014.81 1014.96 1015.12 1015.25 1015.31 1015.24 1015.00 1014.56 1013.92 1013.10 1012.16 1011.15 1010.15 1009.25 1008.50 1007.95 1007.61 1007.49 1007.55 1007.77 1008.11 1008.52 1008.97 1009.42 1009.86 1010.26 1010.62 1010.92 1011.15 1011.32 1011.42 1011.46 1011.45 1011.40 1011.32 1011.22 1011.13 1011.03 1010.92 1010.81 1010.67 1010.51 1010.31 1010.09
1014.84 1014.91 1014.97 1014.99 1014.92 1014.75 1014.43 1013.97 1013.36 1012.64 1011.85 1011.02 1010.23 1009.52 1008.93 1008.50 1008.24 1008.13 1008.17 1008.33 1008.59 1008.91 1009.27 1009.64 1010.00 1010.33 1010.62 1010.85 1011.02 1011.11 1011.14 1011.11 1011.03 1010.91 1010.79 1010.66 1010.54 1010.43 1010.30 1010.17 1010.00 1009.80 1009.55 1009.28
1014.85 1014.87 1014.85 1014.78 1014.63 1014.39 1014.04 1013.60 1013.07 1012.47 1011.83 1011.20 1010.61 1010.08 1009.65 1009.32 1009.11 1009.01 1009.00 1009.08 1009.23 1009.44 1009.67 1009.93 1010.18 1010.41 1010.61 1010.76 1010.84 1010.85 1010.80 1010.70 1010.55 1010.38 1010.21 1010.04 1009.89 1009.74 1009.58 1009.40 1009.19 1008.94 1008.64 1008.31
1014.86 1014.84 1014.77 1014.64 1014.45 1014.19 1013.86 1013.47 1013.04 1012.58 1012.11 1011.66 1011.25 1010.88 1010.58 1010.34 1010.16 1010.04 1009.97 1009.96 1009.98 1010.05 1010.14 1010.26 1010.38 1010.49 1010.58 1010.62 1010.61 1010.54 1010.41 1010.23 1010.02 1009.80 1009.57 1009.35 1009.14 1008.94 1008.74 1008.51 1008.24 1007.93 1007.57 1007.19
1014.90 1014.84 1014.75 1014.60 1014.40 1014.16 1013.87 1013.56 1013.23 1012.91 1012.59 1012.30 1012.04 1011.81 1011.61 1011.42 1011.26 1011.10 1010.97 1010.84 1010.75 1010.67 1010.62 1010.59 1010.57 1010.55 1010.52 1010.45 1010.34 1010.18 1009.97 1009.72 1009.44 1009.15 1008.87 1008.59 1008.32 1008.05 1007.78 1007.48 1007.16 1006.79 1006.38 1005.96
1014.99 1014.91 1014.80 1014.66 1014.48 1014.27 1014.04 1013.80 1013.58 1013.37 1013.18 1013.01 1012.86 1012.72 1012.57 1012.42 1012.25 1012.06 1011.85 1011.63 1011.41 1011.21 1011.02 1010.86 1010.71 1010.56 1010.41 1010.24 1010.03 1009.78 1009.49 1009.17 1008.82 1008.47 1008.11 1007.76 1007.42 1007.08 1006.73 1006.37 1005.97 1005.55 1005.11 1004.66
1015.16 1015.08 1014.97 1014.83 1014.68 1014.50 1014.33 1014.15 1014.00 1013.86 1013.75 1013.65 1013.56 1013.47 1013.35 1013.20 1013.01 1012.78 1012.51 1012.21 1011.90 1011.60 1011.30 1011.02 1010.76 1010.51 1010.25 1009.98 1009.68 1009.35 1008.98 1008.59 1008.17 1007.73 1007.30 1006.87 1006.45 1006.03 1005.61 1005.17 1004.72 1004.25 1003.78 1003.32
1015.46 1015.37 1015.26 1015.13 1014.99 1014.85 1014.70 1014.55 1014.43 1014.32 1014.22 1014.14 1014.06 1013.97 1013.84 1013.67 1013.46 1013.19 1012.88 1012.53 1012.16 1011.79 1011.42 1011.06 1010.71 1010.37 1010.03 1009.68 1009.30 1008.89 1008.45 1007.98 1007.48 1006.97 1006.46 1005.94 1005.44 1004.93 1004.43 1003.92 1003.42 1002.91 1002.42 1001.96
1015.88 1015.77 1015.66 1015.54 1015.41 1015.26 1015.11 1014.96 1014.81 1014.68 1014.56 1014.44 1014.32 1014.19 1014.03 1013.83 1013.59 1013.30 1012.96 1012.59 1012.19 1011.79 1011.37 1010.97 1010.57 1010.16 1009.76 1009.33 1008.88 1008.41 1007.89 1007.35 1006.78 1006.18 1005.59 1004.98 1004.38 1003.79 1003.21 1002.64 1002.08 1001.54 1001.04 1000.59
1016.39 1016.28 1016.16 1016.03 1015.89 1015.72 1015.54 1015.34 1015.14 1014.93 1014.74 1014.55 1014.36 1014.16 1013.95 1013.71 1013.45 1013.14 1012.81 1012.44 1012.04 1011.63 1011.20 1010.77 1010.34 1009.89 1009.43 1008.95 1008.44 1007.90 1007.31 1006.70 1006.05 1005.38 1004.69 1004.00 1003.30 1002.62 1001.96 1001.31 1000.71 1000.14 999.63 999.18
1016.95 1016.82 1016.70 1016.55 1016.38 1016.17 1015.93 1015.67 1015.38 1015.09 1014.80 1014.51 1014.23 1013.96 1013.70 1013.43 1013.14 1012.84 1012.52 1012.16 1011.78 1011.38 1010.96 1010.52 1010.06 1009.58 1009.08 1008.54 1007.97 1007.37 1006.72 1006.03 1005.31 1004.56 1003.78 1003.00 1002.21 1001.43 1000.68 999.96 999.30 998.69 998.16 997.72
1017.46 1017.33 1017.18 1017.02 1016.81 1016.56 1016.26 1015.92 1015.55 1015.16 1014.77 1014.39 1014.04 1013.70 1013.39 1013.10 1012.81 1012.51 1012.20 1011.87 1011.52 1011.13 1010.70 1010.25 1009.77 1009.25 1008.70 1008.11 1007.48 1006.82 1006.11 1005.35 1004.56 1003.73 1002.87 1002.00 1001.11 1000.24 999.40 998.60 997.86 997.20 996.64 996.19
1017.84 1017.70 1017.55 1017.36 1017.13 1016.84 1016.49 1016.08 1015.64 1015.18 1014.71 1014.27 1013.85 1013.47 1013.14 1012.83 1012.54 1012.26 1011.97 1011.65 1011.30 1010.91 1010.48 1010.00 1009.47 1008.91 1008.30 1007.66 1006.97 1006.25 1005.48 1004.67 1003.82 1002.92 1001.98 1001.02 1000.04 999.07 998.13 997.23 996.41 995.69 995.08 994.60
1018.02 1017.88 1017.73 1017.54 1017.29 1016.97 1016.59 1016.15 1015.66 1015.16 1014.65 1014.17 1013.73 1013.34 1013.00 1012.69 1012.41 1012.14 1011.86 1011.55 1011.19 1010.77 1010.30 1009.77 1009.19 1008.56 1007.89 1007.19 1006.44 1005.67 1004.85 1003.99 1003.09 1002.13 1001.12 1000.08 999.02 997.95 996.90 995.91 994.99 994.18 993.51 992.98
1017.97 1017.84 1017.69 1017.51 1017.26 1016.95 1016.56 1016.11 1015.62 1015.11 1014.61 1014.13 1013.70 1013.32 1012.99 1012.70 1012.44 1012.17 1011.88 1011.55 1011.16 1010.69 1010.16 1009.56 1008.91 1008.21 1007.47 1006.70 1005.91 1005.08 1004.23 1003.34 1002.39 1001.39 1000.33 999.22 998.07 996.91 995.76 994.65 993.64 992.73 991.98 991.40
1017.72 1017.59 1017.46 1017.29 1017.06 1016.77 1016.40 1015.98 1015.52 1015.05 1014.58 1014.14 1013.74 1013.40 1013.10 1012.84 1012.58 1012.31 1012.00 1011.63 1011.18 1010.66 1010.05 1009.37 1008.63 1007.85 1007.04 1006.21 1005.38 1004.52 1003.64 1002.73 1001.76 1000.73 999.63 998.46 997.24 995.99 994.74 993.53 992.41 991.41 990.58 989.94
1017.31 1017.20 1017.08 1016.93 1016.73 1016.47 1016.15 1015.78 1015.37 1014.95 1014.55 1014.17 1013.83 1013.54 1013.28 1013.03 1012.78 1012.50 1012.16 1011.74 1011.23 1010.62 1009.93 1009.16 1008.34 1007.49 1006.62 1005.75 1004.88 1004.01 1003.12 1002.19 1001.21 1000.17 999.04 997.82 996.54 995.22 993.88 992.58 991.36 990.27 989.37 988.67
1016.83 1016.73 1016.63 1016.50 1016.33 1016.11 1015.84 1015.53 1015.19 1014.84 1014.50 1014.20 1013.92 1013.68 1013.45 1013.23 1012.98 1012.68 1012.30 1011.83 1011.25 1010.57 1009.80 1008.96 1008.08 1007.17 1006.25 1005.35 1004.46 1003.58 1002.69 1001.77 1000.79 999.73 998.59 997.34 996.01 994.62 993.22 991.84 990.54 989.38 988.41 987.67
1016.37 1016.27 1016.18 1016.07 1015.92 1015.74 1015.51 1015.26 1014.98 1014.70 1014.44 1014.19 1013.98 1013.78 1013.59 1013.38 1013.13 1012.80 1012.39 1011.87 1011.24 1010.50 1009.68 1008.78 1007.85 1006.91 1005.97 1005.06 1004.17 1003.29 1002.41 1001.49 1000.51 999.45 998.29 997.02 995.65 994.22 992.76 991.33 989.98 988.77 987.76 986.99
1015.99 1015.89 1015.79 1015.68 1015.56 1015.40 1015.21 1015.00 1014.78 1014.56 1014.35 1014.16 1013.99 1013.83 1013.66 1013.45 1013.19 1012.86 1012.42 1011.87 1011.20 1010.43 1009.58 1008.66 1007.71 1006.76 1005.82 1004.91 1004.03 1003.16 1002.28 1001.36 1000.38 999.32 998.14 996.85 995.46 994.00 992.51 991.05 989.67 988.44 987.42 986.65
1015.71 1015.59 1015.48 1015.38 1015.25 1015.11 1014.95 1014.78 1014.59 1014.42 1014.25 1014.10 1013.96 1013.82 1013.66 1013.46 1013.20 1012.85 1012.39 1011.83 1011.16 1010.38 1009.53 1008.62 1007.69 1006.75 1005.83 1004.93 1004.06 1003.19 1002.31 1001.39 1000.40 999.32 998.12 996.81 995.40 993.93 992.43 990.96 989.59 988.36 987.36 986.60
1015.50 1015.37 1015.25 1015.14 1015.02 1014.89 1014.74 1014.59 1014.44 1014.29 1014.15 1014.03 1013.90 1013.77 1013.62 1013.42 1013.15 1012.80 1012.35 1011.80 1011.14 1010.39 1009.56 1008.69 1007.79 1006.88 1005.99 1005.11 1004.25 1003.38 1002.49 1001.55 1000.53 999.42 998.19 996.86 995.44 993.96 992.47 991.01 989.66 988.47 987.50 986.78
1015.32 1015.18 1015.05 1014.94 1014.82 1014.70 1014.57 1014.44 1014.31 1014.18 1014.07 1013.95 1013.84 1013.71 1013.56 1013.36 1013.09 1012.75 1012.31 1011.78 1011.16 1010.45 1009.67 1008.85 1008.00 1007.14 1006.28 1005.42 1004.56 1003.68 1002.76 1001.79 1000.73 999.57 998.31 996.96 995.52 994.04 992.56 991.14 989.83 988.68 987.76 987.08
1015.12 1014.97 1014.85 1014.74 1014.63 1014.53 1014.42 1014.31 1014.20 1014.10 1013.99 1013.89 1013.78 1013.65 1013.50 1013.29 1013.03 1012.70 1012.29 1011.79 1011.21 1010.56 1009.85 1009.08 1008.29 1007.48 1006.65 1005.80 1004.94 1004.04 1003.08 1002.06 1000.95 999.74 998.44 997.05 995.59 994.11 992.65 991.26 990.00 988.90 988.03 987.41
1014.84 1014.70 1014.59 1014.50 1014.42 1014.34 1014.26 1014.18 1014.10 1014.02 1013.93 1013.84 1013.73 1013.60 1013.44 1013.24 1012.99 1012.67 1012.28 1011.82 1011.29 1010.70 1010.05 1009.35 1008.61 1007.84 1007.04 1006.21 1005.33 1004.40 1003.40 1002.32 1001.15 999.89 998.53 997.10 995.62 994.14 992.70 991.33 990.11 989.06 988.24 987.66
1014.45 1014.34 1014.26 1014.20 1014.15 1014.11 1014.07 1014.03 1013.99 1013.93 1013.86 1013.78 1013.68 1013.55 1013.39 1013.19 1012.94 1012.64 1012.28 1011.85 1011.37 1010.83 1010.24 1009.60 1008.92 1008.19 1007.42 1006.59 1005.70 1004.74 1003.70 1002.56 1001.32 1000.00 998.58 997.11 995.61 994.11 992.67 991.32 990.12 989.11 988.32 987.77
1013.98 1013.90 1013.85 1013.83 1013.83 1013.83 1013.84 1013.85 1013.84 1013.82 1013.78 1013.71 1013.62 1013.50 1013.33 1013.13 1012.89 1012.60 1012.26 1011.86 1011.43 1010.94 1010.40 1009.82 1009.19 1008.50 1007.76 1006.94 1006.04 1005.05 1003.97 1002.78 1001.49 1000.10 998.63 997.11 995.57 994.05 992.60 991.25 990.06 989.05 988.27 987.73
Thickness
5641 5647 5647 5647 5649 5646 5641 5639 5634 5643 5647 5662 5666 5667 5669 5669 5668 5668 5667 5666 5665 5662 5661 5659 5657 5656 5654 5653 5651 5650 5647 5645 5643 5641 5640 5637 5636 5634 5632 5629 5628 5626 5623 5622
5637 5642 5640 5641 5646 5645 5643 5644 5642 5646 5650 5663 5663 5662 5662 5662 5663 5663 5663 5663 5662 5660 5657 5655 5654 5651 5649 5647 5646 5644 5642 5640 5638 5636 5634 5632 5630 5628 5626 5623 5621 5619 5617 5615
5621 5629 5634 5630 5643 5643 5643 5645 5644 5642 5651 5656 5655 5656 5658 5658 5659 5659 5660 5659 5658 5656 5654 5652 5650 5648 5645 5643 5640 5637 5635 5634 5632 5631 5628 5626 5624 5621 5619 5617 5614 5612 5610 5608
5609 5617 5615 5636 5647 5646 5644 5645 5645 5647 5650 5651 5653 5655 5656 5655 5654 5654 5655 5654 5653 5652 5650 5648 5646 5644 5640 5637 5634 5631 5629 5627 5626 5624 5621 5619 5616 5614 5612 5610 5607 5606 5604 5602
5597 5601 5610 5631 5640 5640 5637 5639 5644 5642 5644 5644 5645 5646 5645 5649 5649 5649 5649 5649 5648 5646 5645 5642 5640 5637 5634 5630 5627 5625 5623 5621 5620 5617 5615 5612 5610 5608 5606 5603 5601 5599 5597 5594
5591 5596 5602 5625 5639 5642 5637 5631 5640 5638 5637 5636 5636 5629 5636 5643 5643 5643 5642 5642 5641 5640 5638 5635 5633 5630 5627 5623 5620 5618 5617 5615 5613 5610 5609 5607 5604 5602 5599 5596 5593 5591 5589 5587
5586 5589 5603 5623 5631 5633 5618 5622 5635 5633 5632 5629 5628 5632 5636 5637 5636 5635 5635 5634 5633 5632 5630 5627 5625 5623 5619 5616 5613 5612 5610 5608 5605 5604 5603 5601 5598 5595 5592 5589 5586 5583 5581 5579
5579 5583 5598 5623 5621 5617 5619 5627 5629 5628 5628 5626 5626 5628 5629 5629 5628 5627 5626 5625 5624 5623 5621 5619 5617 5615 5612 5609 5609 5606 5604 5601 5598 5597 5597 5595 5591 5587 5584 5581 5578 5575 5572 5570
5592 5600 5613 5616 5617 5622 5622 5621 5622 5621 5623 5622 5621 5621 5622 5622 5621 5619 5618 5617 5616 5615 5612 5610 5609 5607 5605 5604 5602 5599 5597 5594 5591 5590 5588 5586 5583 5579 5576 5573 5570 5567 5564 5562
5587 5599 5607 5611 5613 5615 5616 5616 5618 5617 5618 5617 5615 5616 5615 5614 5612 5611 5609 5608 5607 5606 5603 5601 5600 5599 5598 5597 5595 5592 5589 5586 5584 5582 5580 5578 5575 5572 5568 5565 5562 5560 5558 5555
5584 5594 5600 5607 5608 5610 5611 5611 5611 5611 5611 5611 5609 5608 5608 5606 5604 5603 5601 5599 5598 5597 5596 5594 5592 5591 5590 5588 5586 5583 5581 5579 5576 5574 5571 5569 5566 5564 5562 5560 5557 5554 5552 5549
5586 5595 5593 5599 5605 5605 5604 5604 5605 5604 5603 5604 5603 5602 5600 5598 5597 5595 5593 5591 5589 5588 5587 5586 5585 5583 5582 5581 5578 5575 5572 5570 5567 5565 5562 5560 5557 5555 5553 5551 5551 5549 5547 5544
5591 5594 5593 5597 5598 5598 5598 5598 5598 5598 5598 5596 5596 5594 5593 5590 5589 5587 5585 5583 5582 5581 5580 5579 5577 5576 5575 5573 5570 5568 5565 5563 5560 5557 5554 5551 5548 5546 5543 5542 5541 5539 5537 5535
5586 5586 5587 5589 5590 5591 5590 5590 5590 5589 5589 5589 5587 5585 5584 5581 5580 5579 5577 5576 5575 5573 5572 5571 5570 5569 5567 5565 5562 5559 5557 5556 5553 5550 5546 5543 5540 5537 5535 5532 5530 5528 5527 5525
5581 5581 5582 5583 5583 5582 5582 5581 5580 5579 5579 5578 5578 5577 5575 5573 5572 5571 5570 5568 5566 5564 5563 5562 5562 5561 5559 5557 5554 5551 5549 5547 5545 5542 5538 5535 5532 5529 5526 5523 5520 5517 5515 5514
5575 5574 5574 5574 5574 5574 5573 5573 5572 5571 5571 5570 5569 5568 5567 5566 5565 5563 5561 5559 5557 5555 5555 5554 5554 5554 5552 5549 5546 5544 5542 5540 5538 5534 5530 5527 5523 5520 5517 5514 5512 5508 5506 5504
5565 5565 5566 5566 5567 5567 5567 5567 5566 5565 5564 5563 5562 5561 5558 5556 5554 5553 5552 5551 5550 5549 5548 5547 5546 5545 5543 5541 5538 5535 5533 5531 5530 5526 5522 5519 5516 5513 5510 5506 5503 5500 5498 5496
5562 5563 5562 5562 5562 5560 5559 5559 5558 5557 5556 5555 5553 5551 5549 5547 5546 5545 5543 5542 5540 5539 5539 5539 5538 5537 5535 5532 5530 5527 5524 5522 5519 5517 5514 5511 5508 5504 5501 5498 5496 5493 5489 5487
5556 5556 5556 5556 5556 5554 5553 5551 5550 5549 5548 5546 5544 5542 5541 5539 5538 5536 5534 5532 5531 5530 5531 5530 5530 5528 5525 5524 5522 5518 5516 5513 5511 5508 5505 5503 5500 5496 5493 5491 5488 5485 5482 5480
5547 5548 5548 5547 5547 5545 5544 5543 5541 5540 5539 5537 5536 5533 5531 5530 5528 5527 5525 5523 5523 5523 5523 5522 5520 5518 5516 5514 5513 5509 5507 5504 5502 5499 5496 5493 5491 5488 5485 5483 5480 5478 5476 5474
5537 5538 5538 5538 5538 5537 5535 5534 5533 5531 5530 5528 5527 5525 5523 5521 5519 5517 5515 5514 5514 5514 5513 5513 5510 5508 5506 5505 5503 5499 5497 5495 5493 5490 5487 5484 5482 5479 5477 5475 5473 5471 5469 5467
5528 5528 5529 5528 5528 5527 5526 5524 5523 5522 5521 5519 5517 5515 5513 5510 5509 5507 5507 5506 5506 5506 5504 5502 5501 5500 5498 5496 5492 5490 5488 5485 5483 5480 5478 5476 5473 5471 5469 5467 5465 5463 5462 5459
5518 5519 5519 5519 5519 5517 5516 5515 5514 5513 5511 5509 5507 5505 5504 5502 5500 5498 5497 5497 5497 5497 5495 5493 5492 5491 5488 5485 5482 5480 5478 5476 5473 5471 5469 5467 5465 5462 5460 5458 5457 5455 5453 5452
5509 5509 5509 5509 5508 5507 5506 5505 5504 5503 5502 5500 5498 5496 5494 5492 5490 5490 5489 5489 5488 5487 5485 5483 5482 5481 5478 5474 5472 5470 5468 5466 5464 5462 5460 5458 5456 5454 5452 5450 5448 5447 5445 5444
5500 5499 5500 5499 5499 5498 5498 5496 5494 5493 5491 5489 5488 5486 5485 5484 5482 5481 5479 5479 5479 5477 5474 5473 5472 5470 5466 5464 5462 5460 5458 5457 5455 5453 5452 5450 5448 5446 5444 5442 5440 5439 5437 5436
5490 5490 5490 5490 5490 5489 5488 5486 5484 5483 5481 5479 5478 5477 5475 5473 5472 5470 5469 5468 5467 5466 5463 5461 5459 5458 5456 5454 5452 5450 5448 5447 5445 5444 5442 5441 5439 5438 5436 5434 5433 5431 5430 5429
5481 5481 5480 5480 5480 5479 5478 5477 5476 5475 5474 5472 5470 5468 5466 5464 5462 5460 5459 5457 5456 5454 5452 5450 5448 5447 5445 5443 5442 5440 5439 5437 5436 5435 5434 5433 5432 5430 5429 5427 5426 5424 5423 5421